Tracking 17855 objects as of 26-September-2016
HD Live streaming from Space Station
objects crossing your sky now

SL-3 DEB

Track SL-3 DEB now!
10-day predictions


NORAD ID: 14928
Int'l Code: 1983-075F
Perigee: 514.6 km
Apogee: 561.5 km
Inclination: 97.9 °
Period: 95.3 minutes
Semi major axis: 6909 km
RCS: 0.0341 m2 (small)
Launch date: July 24, 1983
Source: Commonwealth of Independent States (former USSR) (CIS)
Launch site: TYURATAM MISSILE AND SPACE COMPLEX (TTMTR)

Note: This is SATELLITE DEBRIS
Your satellite tracking list
Your tracking list is empty





NASA's NSSDC Master Catalog

Two Line Element Set (TLE):
1 14928U 83075F   16269.03532650  .00000681  00000-0  43555-4 0  9996
2 14928  97.8508  44.5182 0033916  44.6960  20.3825 15.11737265780315
Source of the keplerian elements: AFSPC

N2YO: 633